STARLINK-33666, 63592

Orbit data source: Space-Track

STARLINK-33666, 63592 is a payload satellite owned by SpaceX/Seattle (US) in LEO that was launched on Mon, 14 Apr 2025 UTC via an FALCON 9 launch vehicle from the Air Force Eastern Test Range (AFETR). Payload-class satellites include a variety of spacecraft equipped with specific instruments for various scientific and technological missions. These include communications satellites like Starlink; space stations such as the ISS; scientific satellites like the Hubble; Earth observation satellites from companies like Planet Labs, Umbra, and HawkEye 360; GPS; miniature CubeSats for education and research; and military/defense satellites.

Loading next visibility...
Identifier
63592, 2025-076Z
Orbit
LEO
Country
Flag of USUS
Related business
Manufacturer
SpaceX/Seattle
Mission
Operational Commercial Communications
Bus & Motor
STARLINK V2MO, Unknown motor
Mass
575 kg wet, ~530 kg dry
Launch date (UTC)
2025-04-14 (5 months ago)
Launch vehicle
FALCON 9
Launch site
Air Force Eastern Test Range (AFETR)
Object type
Payload
Rocket body
Debris
Shape & HBR
Box + 1 Pan, 14.5 m
Radar Cross Section
41.120 m², Large (>1 m²)

Expand to show TLE details & history
Last TLE update: 1 day ago

TLE from 1 day ago
0 STARLINK-33666
1 63592U 25076Z   25260.31855268  .00032119  00000-0  11718-2 0  9994
2 63592  43.0002 220.9577 0001390 266.7141  93.3551 15.27573708 25310
Epoch: 2025-09-17T07:38Z
TLE epoch observation values (Epoch: 2025-09-17T07:38:42.951Z)
Latitude
-0.00006°
Longitude
109.78245°
Altitude
482.899 km
Speed
7.626 km/s
True Right ascension
14h 43m 49s
True Declination
0° 00' 00"
Sunlit
Object was in daylight at epoch
Visualization orbit readout
Latitude
Unknown
Longitude
Unknown
Altitude
Unknown
Speed
Unknown
Apparent Right ascension
Unknown
Apparent Declination
Unknown
Sunlit
N/A
Visualization observer readout
Local Sidereal Time
01:35:26
Azimuth
Unknown
Elevation
Unknown
Doppler factor
Unknown
Orbital elements
Apogee altitude
485.967 km
Perigee altitude
484.059 km
Semi-major axis
6,863.15 km
Eccentricity
0.00014
Inclination
43.0002°
RAAN
220.9577°
Arg. of periapsis
266.7141°
True anomaly
93.371°
Mean anomaly
93.3551°
Eccentric anomaly
93.36305°
Mean motion
3.81731 °/min
Orbital period
94.31 mins
BSTAR
0.0011718
Loading maneuver chart data...
Computing Atmospheric mass density...
Loading historical data...
Loading historical data...
Loading historical data...
Loading historical data...
Loading historical data...
Loading historical data...
Loading historical data...

Documentation

Showing up to 5 results
|